Weather reports worldwide

Advertisment
Linton-On-Ouse, United Kingdom (3266): temperature & dewpoint: 05.12.2019 07:00:00 - 11.12.2019 07:00:00 (GMT)Linton-On-Ouse, United Kingdom (3266): wind speed & gusts: 05.12.2019 07:00:00 - 11.12.2019 07:00:00 (GMT)Linton-On-Ouse, United Kingdom (3266): wind direction: 05.12.2019 07:00:00 - 11.12.2019 07:00:00 (GMT)Linton-On-Ouse, United Kingdom (3266): reduced air pressure: 05.12.2019 07:00:00 - 11.12.2019 07:00:00 (GMT)Linton-On-Ouse, United Kingdom (3266): visibility: 05.12.2019 07:00:00 - 11.12.2019 07:00:00 (GMT)
Date & Time tt [°C] td [°C] ff [km/h] ff [kn] fx [km/h] fx [kn] dd ppp [hPa] vv [km]
11.12.2019 07:00:00 4,4 1,5 11 6 - - SSW 1001,1 18
11.12.2019 06:00:00 4,8 1,7 15 8 - - SSW 1001,5 17
11.12.2019 05:00:00 4,9 2,1 13 7 - - S 1002,0 10
11.12.2019 04:00:00 5,5 2,7 18 10 - - SW 1002,0 10
11.12.2019 03:00:00 6,1 2,6 21 11 - - SW 1001,8 13
11.12.2019 02:00:00 6,2 2,8 16 9 - - SW 1001,7 15
11.12.2019 01:00:00 6,5 3,0 13 7 - - SW 1001,5 17
11.12.2019 00:00:00 6,1 3,3 26 14 48 26 WSW 1001,3 18
10.12.2019 23:00:00 5,9 3,1 21 11 52 28 W 1000,1 18
10.12.2019 22:00:00 6,5 3,6 31 17 61 33 WSW 998,7 17
10.12.2019 21:00:00 6,0 3,7 28 15 50 27 WSW 998,0 21
10.12.2019 20:00:00 6,4 3,8 31 17 50 27 W 997,5 18
10.12.2019 19:00:00 7,4 4,9 24 13 52 28 W 995,3 26
10.12.2019 18:00:00 9,3 7,0 37 20 74 40 W 993,5 16
10.12.2019 17:00:00 12,6 10,1 46 25 67 36 S 990,7 17
10.12.2019 16:00:00 12,1 9,6 42 23 59 32 S 992,4 19
10.12.2019 15:00:00 11,1 9,0 34 18 52 28 S 994,2 16
10.12.2019 14:00:00 10,2 8,3 35 19 65 35 S 996,3 6
10.12.2019 13:00:00 9,9 7,8 34 18 57 31 S 998,7 20
10.12.2019 12:00:00 8,8 7,1 39 21 55 30 S 1000,9 18
10.12.2019 11:00:00 7,2 6,0 31 17 48 26 S 1003,4 6
10.12.2019 10:00:00 6,1 4,7 34 18 48 26 S 1005,5 13
10.12.2019 09:00:00 5,0 4,0 28 15 - - SSE 1007,7 12
10.12.2019 08:00:00 3,7 2,6 21 11 - - SSE 1009,8 9
10.12.2019 07:00:00 3,6 1,7 31 17 - - S 1011,7 13
10.12.2019 06:00:00 3,4 1,1 22 12 - - SSE 1013,3 14
10.12.2019 05:00:00 2,7 1,1 15 8 - - SSE 1014,9 14
10.12.2019 04:00:00 1,4 0,2 11 6 - - SSE 1016,4 12
10.12.2019 03:00:00 1,7 0,2 11 6 - - SSE 1017,8 12
10.12.2019 02:00:00 2,2 0,2 15 8 - - S 1019,2 15
10.12.2019 01:00:00 1,1 -0,3 9 5 - - SSE 1020,6 17
10.12.2019 00:00:00 0,6 -0,6 8 4 - - S 1021,2 10
09.12.2019 23:00:00 0,4 -0,8 5 3 - - ESE 1021,3 19
09.12.2019 22:00:00 1,3 -0,5 5 3 - - S 1021,4 20
09.12.2019 21:00:00 1,4 -0,6 5 3 - - S 1021,3 21
09.12.2019 20:00:00 1,0 -1,7 2 1 - - NNW 1021,0 27
09.12.2019 19:00:00 3,2 -0,7 13 7 - - SW 1020,7 10
09.12.2019 18:00:00 2,6 -0,7 11 6 - - WSW 1019,9 10
09.12.2019 17:00:00 3,8 -0,2 15 8 - - W 1019,1 10
09.12.2019 16:00:00 4,3 -0,5 15 8 - - WNW 1017,8 10
09.12.2019 15:00:00 5,8 -0,3 24 13 - - NW 1016,5 30
09.12.2019 14:00:00 6,5 -0,8 22 12 - - NW 1015,3 30
09.12.2019 13:00:00 6,6 -0,2 22 12 48 26 NW 1013,8 29
09.12.2019 12:00:00 6,4 -0,1 28 15 48 26 NW 1012,0 30
09.12.2019 11:00:00 6,2 0,3 29 16 - - NNW 1010,3 28
09.12.2019 10:00:00 5,4 0,6 24 13 46 25 NW 1008,0 25
09.12.2019 09:00:00 5,2 0,4 29 16 48 26 NW 1005,4 25
09.12.2019 08:00:00 5,3 0,9 35 19 52 28 NW 1002,7 29
09.12.2019 07:00:00 6,4 1,5 37 20 54 29 NW 1000,0 30
09.12.2019 06:00:00 6,5 2,2 39 21 55 30 NW 996,6 35
09.12.2019 05:00:00 6,2 2,5 28 15 - - NW 994,1 35
09.12.2019 04:00:00 6,1 3,7 22 12 - - NW 991,2 30
09.12.2019 03:00:00 5,4 3,8 13 7 - - W 988,8 22
09.12.2019 02:00:00 4,9 4,0 8 4 - - SW 987,2 20
09.12.2019 01:00:00 4,7 3,4 8 4 - - WSW 985,9 20
09.12.2019 00:00:00 5,8 3,9 22 12 - - SW 985,4 10
08.12.2019 23:00:00 6,1 3,3 24 13 - - SW 985,1 13
08.12.2019 22:00:00 6,5 2,6 26 14 - - SW 985,1 17
08.12.2019 21:00:00 6,6 2,5 26 14 48 26 SW 985,2 17
08.12.2019 20:00:00 6,2 2,6 31 17 50 27 SW 986,1 17
08.12.2019 19:00:00 6,7 2,0 35 19 54 29 WSW 986,0 19
08.12.2019 18:00:00 7,0 2,0 29 16 48 26 SW 987,0 18
08.12.2019 17:00:00 6,5 2,3 31 17 50 27 WSW 987,8 18
08.12.2019 16:00:00 6,5 2,9 35 19 61 33 WSW 988,4 17
08.12.2019 15:00:00 7,1 3,9 39 21 65 35 WSW 988,8 10
08.12.2019 14:00:00 6,7 4,0 39 21 72 39 WSW 989,4 11
08.12.2019 13:00:00 7,4 3,8 39 21 67 36 SW 990,0 12
08.12.2019 12:00:00 7,2 4,6 29 16 57 31 WSW 990,7 15
08.12.2019 11:00:00 8,0 4,2 34 18 54 29 SW 990,7 14
08.12.2019 10:00:00 6,1 4,0 35 19 74 40 WSW 991,7 3,1
08.12.2019 09:00:00 8,0 4,2 37 20 61 33 WSW 991,0 12
08.12.2019 08:00:00 7,9 4,4 34 18 52 28 W 991,1 13
08.12.2019 07:00:00 7,6 4,2 24 13 59 32 W 991,1 19
08.12.2019 06:00:00 8,6 5,2 31 17 68 37 W 990,5 16
08.12.2019 05:00:00 9,9 6,2 29 16 55 30 W 990,0 17
08.12.2019 04:00:00 10,5 6,3 35 19 55 30 W 989,7 19
08.12.2019 03:00:00 11,6 9,0 31 17 54 29 SW 988,7 20
08.12.2019 02:00:00 11,3 8,6 37 20 54 29 SSW 989,3 19
08.12.2019 01:00:00 10,3 8,6 35 19 48 26 SSW 991,6 15
08.12.2019 00:00:00 9,3 8,1 24 13 - - SSW 993,5 5
07.12.2019 23:00:00 10,0 7,4 28 15 46 25 S 995,4 11
07.12.2019 22:00:00 10,4 7,0 29 16 - - SSW 997,2 19
07.12.2019 21:00:00 10,0 7,2 18 10 - - SSW 999,8 18
07.12.2019 20:00:00 9,7 7,4 28 15 - - SSW 1001,5 16
07.12.2019 19:00:00 9,7 7,1 15 8 - - SSE 1002,9 19
07.12.2019 18:00:00 8,8 6,5 13 7 - - SSE 1004,2 18
07.12.2019 17:00:00 9,1 6,3 18 10 - - S 1005,0 17
07.12.2019 16:00:00 9,6 6,4 11 6 - - SSE 1006,2 16
07.12.2019 15:00:00 9,5 6,2 5 3 - - SSE 1006,8 10
07.12.2019 14:00:00 9,4 6,3 13 7 - - SW 1007,4 21
07.12.2019 13:00:00 9,5 6,5 21 11 - - WSW 1008,7 18
07.12.2019 12:00:00 9,6 7,1 16 9 - - WSW 1008,4 16
07.12.2019 11:00:00 9,2 6,4 13 7 - - WSW 1009,2 10
07.12.2019 10:00:00 9,0 6,5 16 9 - - WSW 1009,5 17
07.12.2019 09:00:00 8,7 6,2 16 9 - - WSW 1008,9 10
07.12.2019 08:00:00 8,6 6,3 9 5 - - WSW 1008,5 18
07.12.2019 07:00:00 8,8 6,2 16 9 - - W 1008,4 27
07.12.2019 06:00:00 8,6 6,1 16 9 - - W 1007,6 26
07.12.2019 05:00:00 8,6 6,0 15 8 - - W 1007,1 24
07.12.2019 04:00:00 8,9 5,9 18 10 - - WSW 1006,4 26
07.12.2019 03:00:00 8,2 6,1 26 14 - - W 1006,2 26
07.12.2019 02:00:00 8,3 6,2 16 9 - - W 1005,5 25
07.12.2019 01:00:00 7,5 5,6 11 6 - - WSW 1004,9 23
07.12.2019 00:00:00 7,8 5,9 15 8 - - WSW 1004,2 10
06.12.2019 23:00:00 8,2 5,9 13 7 - - W 1003,2 24
06.12.2019 22:00:00 8,4 6,1 18 10 - - W 1002,5 23
06.12.2019 21:00:00 8,7 6,0 15 8 - - W 1002,1 24
06.12.2019 20:00:00 8,6 6,4 15 8 - - W 1001,4 22
06.12.2019 19:00:00 8,8 5,9 16 9 - - WNW 999,6 26
06.12.2019 18:00:00 8,6 6,4 11 6 - - W 998,4 24
06.12.2019 17:00:00 8,8 6,2 15 8 - - W 997,1 25
06.12.2019 16:00:00 10,0 7,3 15 8 - - W 996,4 24
06.12.2019 15:00:00 10,0 7,6 18 10 - - W 995,9 10
06.12.2019 14:00:00 10,6 7,5 22 12 - - W 995,6 10
06.12.2019 13:00:00 11,2 8,1 22 12 46 25 W 995,8 10
06.12.2019 12:00:00 11,2 8,6 26 14 - - WSW 996,0 22
06.12.2019 11:00:00 11,3 10,0 28 15 - - WSW 996,5 18
06.12.2019 10:00:00 11,9 10,1 18 10 - - SW 996,7 20
06.12.2019 09:00:00 12,0 10,1 21 11 - - SW 997,3 10
06.12.2019 08:00:00 11,6 10,4 21 11 - - SSW 997,6 10
06.12.2019 07:00:00 11,1 10,3 18 10 - - S 998,0 21
06.12.2019 06:00:00 10,8 10,5 15 8 - - S 999,0 3,3
06.12.2019 05:00:00 10,7 10,5 16 9 - - SSW 1000,0 2,0
06.12.2019 04:00:00 10,9 10,6 16 9 - - SSW 1000,5 1,8
06.12.2019 03:00:00 11,2 10,8 16 9 - - SW 1001,1 2,4
06.12.2019 02:00:00 11,6 10,7 26 14 48 26 SW 1001,0 3,1
06.12.2019 01:00:00 12,3 9,9 28 15 59 32 WSW 1001,3 10
06.12.2019 00:00:00 12,2 10,0 39 21 57 31 WSW 1001,0 24
05.12.2019 23:00:00 12,2 9,9 41 22 59 32 WSW 1001,2 27
05.12.2019 22:00:00 10,4 9,3 26 14 - - SW 1002,5 10
05.12.2019 21:00:00 10,5 8,6 29 16 57 31 SW 1002,7 9
05.12.2019 20:00:00 10,9 7,8 34 18 63 34 WSW 1002,8 5
05.12.2019 19:00:00 10,5 7,7 35 19 70 38 WSW 1002,4 2,9
05.12.2019 18:00:00 10,1 7,1 37 20 63 34 SW 1003,2 20
05.12.2019 17:00:00 9,8 6,5 31 17 50 27 SSW 1004,1 25
05.12.2019 16:00:00 9,2 6,1 26 14 - - S 1005,4 26
05.12.2019 15:00:00 8,9 5,6 28 15 - - SSW 1006,9 25
05.12.2019 14:00:00 7,7 4,5 26 14 - - S 1008,3 21
05.12.2019 13:00:00 8,2 4,3 28 15 - - SSW 1010,2 23
05.12.2019 12:00:00 7,8 4,0 26 14 - - SSW 1011,9 23
05.12.2019 11:00:00 7,4 3,8 24 13 - - SSW 1013,5 22
05.12.2019 10:00:00 6,7 3,5 26 14 - - SSW 1014,6 10
05.12.2019 09:00:00 6,4 3,5 24 13 - - SSW 1014,2 10
05.12.2019 08:00:00 6,5 4,3 11 6 - - SSW 1014,7 5
05.12.2019 07:00:00 6,3 4,0 15 8 - - S 1015,0 -

tt = temperature
td = dewpoint
ff = wind speed
fx = gusts
dd = wind direction
ppp = reduced air pressure
vv = visibility

Next stations